Regional Weather Roundup
Issued by NWS Northern Indiana

Home | Current Version | Previous Version | Text Only | Print | Product List | Glossary On
Versions: 1 2 3 4 5 6 7 8 9 10 11 12 13 14 15 16 17 18 19 20 21 22 23 24 25 26 27 28 29 30 31 32 33 34 35 36 37 38 39 40 41 42 43 44 45 46 47 48 49 50
000
ASUS43 KIWX 111910
RWRIWX

KIWX WEATHER ROUNDUP
NATIONAL WEATHER SERVICE NORTHERN INDIANA
300 PM EDT FRI JUL 11 2014

NOTE: "FAIR" INDICATES FEW OR NO CLOUDS BELOW 12,000 FEET WITH NO
SIGNIFICANT WEATHER AND/OR OBSTRUCTIONS TO VISIBILITY.

* THESE STATIONS ARE NOT UNDER NWS QUALITY CONTROL. THEY ALSO MAY NOT
  REPORT WEATHER SUCH AS PRECIPITATION OR FOG.

INZ001>027-112000-
NORTHERN INDIANA

CITY           SKY/WX    TMP DP  RH WIND       PRES   REMARKS
GARY*          MOSUNNY   81  50  34 SE8       30.18F
VALPARAISO     SUNNY     78  53  41 SW6       30.19F
LAPORTE*       MOSUNNY   78  53  41 SE5       30.20F
KNOX*          SUNNY     79  54  41 S8        30.18F
SOUTH BEND     MOSUNNY   80  55  42 S5        30.20F
GOSHEN         SUNNY     80  56  43 SE3       30.19F
MONTICELLO*    SUNNY     78  58  49 SE7       30.18F
LOGANSPORT*    SUNNY     79  54  41 CALM      30.20F
ROCHESTER*     SUNNY     82  52  34 SW5       30.20F
WARSAW*        SUNNY     79  54  41 S6        30.20F
ANGOLA*        SUNNY     81  57  44 S7        30.21F
FORT WAYNE     PTSUNNY   79  55  43 S6        30.21F
HUNTINGTON*    SUNNY     78  55  45 CALM      30.20F
PERU/GRISSOM   MOSUNNY   80  58  45 S9        30.20F
MARION*        SUNNY     78  51  39 W3        30.21F

$$
INZ028>050-112000-
CENTRAL INDIANA

CITY           SKY/WX    TMP DP  RH WIND       PRES   REMARKS
LAFAYETTE      MOSUNNY   79  54  41 VRB3      30.18F
KOKOMO*        SUNNY     81  54  39 SW3       30.20F
MUNCIE*        SUNNY     78  52  40 VRB3      30.21F
INDIANAPOLIS   MOSUNNY   79  54  41 VRB5      30.19F

$$
MIZ043>046-050>051-056>058-064>065-071>073-077>080-112000-
SOUTHWEST LOWER MICHIGAN

CITY           SKY/WX    TMP DP  RH WIND       PRES   REMARKS
BATTLE CREEK   MOSUNNY   78  57  48 SW10      30.21F
BENTON HARBOR  MOSUNNY   77  57  50 CALM      30.18F
COLDWATER*     MOSUNNY   78  58  50 SW9       30.20F
HILLSDALE*     MOSUNNY   76  57  50 CALM      30.22F
HOLLAND        MOSUNNY   78  59  51 W8        30.20F
GRAND RAPIDS   PTSUNNY   79  58  48 S6        30.20F
KALAMAZOO      MOSUNNY   79  57  46 S9        30.20F
STURGIS*       MOSUNNY   79  57  47 SE6       30.20F
THREE RIVERS*  FAIR      78  60  53 S7        30.21F

$$
OHZ001>008-015>018-024>025-112000-
NORTHWEST OHIO

CITY           SKY/WX    TMP DP  RH WIND       PRES   REMARKS
WAUSEON*       FAIR      81  57  44 S7        30.21S
DEFIANCE       MOSUNNY   81  57  43 VRB7      30.21F
FINDLAY        SUNNY     80  56  43 VRB5      30.20F
TOLEDO EXPRESS MOSUNNY   78  56  46 VRB3      30.21S
TOLEDO METCALF PTSUNNY   80  57  45 E6        30.21F
LIMA           PTSUNNY   80  58  46 SW9       30.21F

$$
&&



USA.gov is the U.S. government's official web portal to all federal, state and local government web resources and services.